Retour au catalogue

JASON 3

ActifScienceLEO
NORAD 41240·PAYLOAD·🇺🇸 United States

Lancé Jan 17, 2016 depuis Vandenberg Space Force Base

Loading…

Prochains Passages (prochaines 24 heures)

TLE

FraisSource: CelesTrak SupGP

Époque: Sep 14, 2026, 00:00 UTC

1 41240C 16002A   26257.00000000 -.00000024  00000+0 -94568-4 0  2572
2 41240  66.0415 299.1143 0008610 268.2425  34.0422 12.87627795    18

Suivez JASON 3 en temps réel avec AllMySat

Download on the App Store